Weather in Salacgriva

Latvia     57°45′50″N   24°21′58″E
temp.,
°C
wind,
m/s
gust,
m/s
humid.,
%
clouds,
%
prec.,
mm/h
press.,
hPa
HPBL,
m
20 april, tue
tue2000:00+8ene476681 0.0 102288
03:00+7e4572100 0.0 102157
06:00+6ene337264 0.0 102039
09:00+7ene35618 0.0 1019111
12:00+9nne346053 0.0 1017501
15:00+9nne2364100 0.0 1015477
18:00+9ese0160100 0.0 1014451
21:00+8ene2264100 0.0 101311
21 april, wed
wed2100:00+7se467299 0.0 101279
03:00+5sse458391 0.0 101165
06:00+4s33915 0.0 100937
09:00+5s44875 0.0 1008142
12:00+5sw458593 0.0 1007206
15:00+6wsw248142 0.0 1006195
18:00+6wnw337923 0.0 1005141
21:00+5nne11775 0.0 100410
22 april, thu
thu2200:00+5s44755 0.0 100438
03:00+4ssw510865 0.0 1004167
06:00+4ssw6108389 0.0 1004217
09:00+4ssw81083100 0.1 1004450
12:00+5sse7118258 0.3 1005532
15:00+6ssw7126723 0.4 1004612
18:00+5ssw8136930 0.0 1004639
21:00+4ssw10148585 0.0 1005486
23 april, fri
fri2300:00+3ssw9128393 0.0 1005594
03:00+2ssw81097100 0.2 1004506
06:00+2ssw81097100 1.1 1003599
09:00+2ssw799095 1.6 1004653
12:00+3ssw9118694 1.6 1004765
15:00+3sw799688 2.1 1006559
18:00+3w9129097 0.1 1008780
21:00+2wsw91398100 0.5 1008719
24 april, sat
sat2400:00+2w81198100 1.8 1008564
03:00+2wsw6895100 2.1 1007536
06:00+2nw5694100 0.5 1006476
09:00+2nw568895 0.8 1007473
12:00+3w458329 0.1 1008455
15:00+3w568469 0.2 1008549
18:00+3w698697 0.1 1009645
21:00+2wnw81192100 0.2 1009711